SKYSAT-C4

Last updated on Fri Oct 04 2024 00:02:25 GMT+0000 (Coordinated Universal Time)

1 41771U 16058B 24277.59753260 .00030356 00000+0 90173-3 0 9998 2 41771 96.9968 319.6933 0003167 115.8302 244.3269 15.34717414449846
UTC large
Height (km)
Speed (km/s)
/
Latitude / Longitude
Inclination (degrees)
Orbital Period (minutes)
Azimuth
Elevation
Range (km)
Doppler Factor

Next 0 passes for location: London (51.5072 / 0.1276)

Sorry there are no passes over London.